sat.trackr.live / text

‹ back to catalog

USA 164 (MILSTAR-2 3)

NORAD 27168 · 2002-001A

PAYLOAD ACTIVE UNKNOWN

§ Identity

Operator
Country
US
Launch date
2002-01-16
Launch site
AFETR
Launch vehicle
Mass (kg)
RCS (m²)

Purposes: comms

External: N2YO · Heavens-Above · Gunter

§ Orbital elements

Epoch: 2026-09-18T00:00:53.696736Z

Period
1,436.11 min
Inclination
11.2914°
Eccentricity
0.0098317
Mean motion
1.00270546 rev/d
Perigee alt
35,372.4 km
Apogee alt
36,201.5 km
Semi-major
42,165.1 km
B*
0.0000e+0
RAAN
21.3209°
Arg perigee
10.2834°
Mean anomaly
344.4884°
Rev number
3,388

§ Raw data

USA 164 (MILSTAR-2 3)1 27168U 02001A   26261.00062149  .00000096  00000+0  00000+0 0  99992 27168  11.2914  21.3209 0098317  10.2834 344.4884  1.00270546 33889

JSON: /api/v1/satellites/27168 · /tle

For live sub-satellite position, see the globe view (requires WebGL).

§ Visibility from observer

Set your observer location to see the next 7 days of passes ≥ 10°. The values pass through the URL so the page stays shareable.

No JS? Fill the form by hand. The geolocation button needs JavaScript.